Hourly Weather Bolshie Krutcy

Today, 16 June, Wednesday

Time Temperature Precipitation Wind Pressure Humidity
00:00 +17°C° 0 mm 2 mps 745 mmHg 78%
01:00 +15°C° 0 mm 2 mps 745 mmHg 81%
02:00 +14°C° 0 mm 2 mps 746 mmHg 84%
03:00 +15°C° 0 mm 2 mps 746 mmHg 85%
04:00 +15°C° 0 mm 2 mps 746 mmHg 86%
05:00 +16°C° 0 mm 2 mps 746 mmHg 86%
06:00 +17°C° 0 mm 3 mps 747 mmHg 80%
07:00 +18°C° 0 mm 4 mps 747 mmHg 74%
08:00 +20°C° 0 mm 4 mps 747 mmHg 68%
09:00 +20°C° 0 mm 4 mps 748 mmHg 60%
10:00 +21°C° 0 mm 4 mps 748 mmHg 53%
11:00 +22°C° 0 mm 5 mps 748 mmHg 45%
12:00 +22°C° 0 mm 4 mps 749 mmHg 43%
13:00 +22°C° 0 mm 4 mps 749 mmHg 41%
14:00 +22°C° 0 mm 4 mps 749 mmHg 39%
15:00 +22°C° 0 mm 4 mps 749 mmHg 43%
16:00 +22°C° 0 mm 4 mps 749 mmHg 46%
17:00 +21°C° 0 mm 3 mps 750 mmHg 50%
18:00 +20°C° 0 mm 3 mps 750 mmHg 55%
19:00 +18°C° 0 mm 3 mps 750 mmHg 61%
20:00 +16°C° 0 mm 2 mps 750 mmHg 67%
21:00 +15°C° 0 mm 2 mps 751 mmHg 66%
22:00 +13°C° 0 mm 3 mps 752 mmHg 66%
23:00 +12°C° 0 mm 3 mps 752 mmHg 65%

Tomorrow, 17 June, Thursday

Time Temperature Precipitation Wind Pressure Humidity
00:00 +12°C° 0 mm 3 mps 753 mmHg 65%
01:00 +12°C° 0 mm 2 mps 753 mmHg 65%
02:00 +10°C° 0 mm 2 mps 753 mmHg 65%
03:00 +12°C° 0 mm 2 mps 754 mmHg 66%
04:00 +13°C° 0 mm 2 mps 754 mmHg 68%
05:00 +13°C° 0 mm 2 mps 754 mmHg 69%
06:00 +15°C° 0 mm 2 mps 755 mmHg 63%
07:00 +17°C° 0 mm 2 mps 755 mmHg 56%
08:00 +20°C° 0 mm 1 mps 755 mmHg 50%
09:00 +20°C° 0 mm 2 mps 755 mmHg 48%
10:00 +21°C° 0 mm 2 mps 755 mmHg 46%
11:00 +23°C° 0 mm 2 mps 756 mmHg 44%
12:00 +24°C° 0 mm 3 mps 755 mmHg 43%
13:00 +25°C° 0 mm 3 mps 755 mmHg 42%
14:00 +25°C° 0 mm 3 mps 755 mmHg 42%
15:00 +25°C° 0 mm 3 mps 755 mmHg 45%
16:00 +25°C° 0 mm 2 mps 755 mmHg 49%
17:00 +25°C° 0 mm 2 mps 755 mmHg 53%
18:00 +23°C° 0 mm 2 mps 755 mmHg 59%
19:00 +21°C° 0 mm 1 mps 756 mmHg 65%
20:00 +19°C° 0 mm 1 mps 756 mmHg 72%
21:00 +18°C° 0 mm 1 mps 756 mmHg 74%
22:00 +16°C° 0 mm 1 mps 756 mmHg 75%
23:00 +16°C° 0 mm 1 mps 756 mmHg 77%

Day after tomorrow, 18 June, Friday

Time Temperature Precipitation Wind Pressure Humidity
00:00 +15°C° 0 mm 1 mps 757 mmHg 78%
01:00 +15°C° 0 mm 1 mps 757 mmHg 78%
02:00 +14°C° 0 mm 1 mps 757 mmHg 78%
03:00 +15°C° 0 mm 1 mps 757 mmHg 77%
04:00 +16°C° 0 mm 1 mps 757 mmHg 75%
05:00 +18°C° 0 mm 1 mps 758 mmHg 74%
06:00 +20°C° 0 mm 1 mps 758 mmHg 67%
07:00 +21°C° 0 mm 1 mps 758 mmHg 61%
08:00 +23°C° 0 mm 1 mps 758 mmHg 55%
09:00 +24°C° 0 mm 2 mps 758 mmHg 52%
10:00 +25°C° 0 mm 2 mps 758 mmHg 48%
11:00 +27°C° 0 mm 2 mps 758 mmHg 45%
12:00 +27°C° 0 mm 2 mps 757 mmHg 44%
13:00 +28°C° 0 mm 3 mps 757 mmHg 44%
14:00 +28°C° 0 mm 3 mps 757 mmHg 43%
15:00 +28°C° 0 mm 3 mps 757 mmHg 47%
16:00 +28°C° 0 mm 3 mps 756 mmHg 51%
17:00 +28°C° 0 mm 2 mps 756 mmHg 55%
18:00 +26°C° 0 mm 3 mps 756 mmHg 62%
19:00 +24°C° 0 mm 3 mps 756 mmHg 69%
20:00 +20°C° 0 mm 3 mps 756 mmHg 75%
21:00 +20°C° 0 mm 3 mps 756 mmHg 77%
22:00 +19°C° 0 mm 3 mps 756 mmHg 78%
23:00 +18°C° 0 mm 3 mps 756 mmHg 79%

19 June, Saturday

Time Temperature Precipitation Wind Pressure Humidity
00:00 +18°C° 0 mm 3 mps 757 mmHg 82%
01:00 +17°C° 0 mm 3 mps 757 mmHg 85%
02:00 +16°C° 0 mm 3 mps 757 mmHg 88%
03:00 +17°C° 0 mm 3 mps 757 mmHg 86%
04:00 +18°C° 0 mm 3 mps 757 mmHg 85%
05:00 +19°C° 0 mm 3 mps 757 mmHg 84%
06:00 +20°C° 0 mm 3 mps 757 mmHg 76%
07:00 +22°C° 0 mm 3 mps 757 mmHg 69%
08:00 +25°C° 0 mm 4 mps 757 mmHg 61%
09:00 +26°C° 0 mm 4 mps 757 mmHg 57%
10:00 +27°C° 0 mm 4 mps 757 mmHg 53%
11:00 +28°C° 0 mm 4 mps 757 mmHg 48%
12:00 +29°C° 0 mm 4 mps 757 mmHg 47%
13:00 +29°C° 0 mm 4 mps 756 mmHg 45%
14:00 +30°C° 0 mm 4 mps 756 mmHg 44%
15:00 +29°C° 0 mm 3 mps 756 mmHg 47%
16:00 +29°C° 0 mm 3 mps 756 mmHg 51%
17:00 +29°C° 0 mm 3 mps 756 mmHg 54%
18:00 +27°C° 0 mm 3 mps 756 mmHg 61%
19:00 +25°C° 0 mm 3 mps 756 mmHg 68%
20:00 +22°C° 0 mm 3 mps 756 mmHg 74%
21:00 +21°C° 0 mm 3 mps 756 mmHg 78%
22:00 +20°C° 0 mm 3 mps 756 mmHg 82%
23:00 +19°C° 0 mm 3 mps 756 mmHg 85%

20 June, Sunday

Time Temperature Precipitation Wind Pressure Humidity
00:00 +19°C° 0 mm 3 mps 756 mmHg 87%
01:00 +18°C° 0 mm 2 mps 756 mmHg 89%
02:00 +18°C° 0 mm 2 mps 756 mmHg 91%
03:00 +18°C° 0 mm 2 mps 756 mmHg 89%
04:00 +19°C° 0 mm 2 mps 756 mmHg 87%
05:00 +20°C° 0 mm 2 mps 756 mmHg 85%
06:00 +21°C° 0 mm 2 mps 756 mmHg 78%
07:00 +24°C° 0 mm 2 mps 756 mmHg 72%
08:00 +25°C° 0 mm 3 mps 756 mmHg 65%
09:00 +27°C° 0 mm 3 mps 756 mmHg 60%
10:00 +28°C° 0 mm 3 mps 756 mmHg 55%
11:00 +29°C° 0 mm 3 mps 755 mmHg 50%
12:00 +30°C° 0 mm 3 mps 755 mmHg 48%
13:00 +30°C° 0 mm 3 mps 755 mmHg 46%
14:00 +31°C° 0 mm 3 mps 754 mmHg 44%
15:00 +30°C° 0 mm 3 mps 754 mmHg 48%
16:00 +30°C° 0 mm 3 mps 754 mmHg 51%
17:00 +29°C° 0 mm 3 mps 754 mmHg 54%
18:00 +27°C° 0 mm 3 mps 754 mmHg 60%
19:00 +25°C° 0 mm 3 mps 754 mmHg 67%
20:00 +22°C° 0 mm 3 mps 754 mmHg 73%
21:00 +21°C° 0 mm 3 mps 754 mmHg 75%
22:00 +20°C° 0 mm 2 mps 754 mmHg 76%
23:00 +19°C° 0 mm 2 mps 754 mmHg 78%

21 June, Monday

Time Temperature Precipitation Wind Pressure Humidity
00:00 +19°C° 0 mm 2 mps 754 mmHg 81%
01:00 +18°C° 0 mm 2 mps 754 mmHg 84%
02:00 +17°C° 0 mm 2 mps 754 mmHg 87%
03:00 +18°C° 0 mm 2 mps 754 mmHg 86%
04:00 +19°C° 0 mm 2 mps 754 mmHg 85%
05:00 +19°C° 0 mm 2 mps 754 mmHg 84%
06:00 +21°C° 0 mm 2 mps 754 mmHg 77%
07:00 +24°C° 0 mm 2 mps 754 mmHg 70%
08:00 +26°C° 0 mm 2 mps 754 mmHg 63%
09:00 +27°C° 0 mm 2 mps 754 mmHg 58%
10:00 +28°C° 0 mm 2 mps 753 mmHg 53%
11:00 +30°C° 0 mm 2 mps 753 mmHg 48%
12:00 +30°C° 0 mm 2 mps 753 mmHg 46%
13:00 +31°C° 0 mm 2 mps 753 mmHg 43%
14:00 +31°C° 0 mm 1 mps 753 mmHg 41%
15:00 +31°C° 0 mm 1 mps 752 mmHg 44%
16:00 +31°C° 0 mm 1 mps 752 mmHg 47%
17:00 +30°C° 0 mm 1 mps 752 mmHg 51%
18:00 +28°C° 0 mm 1 mps 752 mmHg 56%
19:00 +26°C° 0 mm 2 mps 752 mmHg 62%
20:00 +25°C° 0 mm 2 mps 752 mmHg 67%
21:00 +24°C° 0.1 mm 2 mps 752 mmHg 70%
22:00 +22°C° 0.1 mm 3 mps 752 mmHg 72%
23:00 +21°C° 0.1 mm 3 mps 752 mmHg 75%
Show more